Pellston, MI

2:01 PM EDT on March 25, 2017 (GMT -0400)
Pellston Regional Airport Of Emmet County

Weather History for KPLN - March, 2013

Change the Weather History Date:

Friday, March 29, 2013

  Actual Average Record
Temperature  
Mean Temperature 30 °F -  
Max Temperature 44 °F 43 °F 65 °F (1981)
Min Temperature 17 °F 25 °F -14 °F (1970)
Degree Days  
Heating Degree Days 35    
Moisture  
Dew Point 19 °F    
Average Humidity 63    
Maximum Humidity 89    
Minimum Humidity 37    
Precipitation  
Precipitation 0.00 in - - ()
Sea Level Pressure  
Sea Level Pressure 30.27 in    
Wind  
Wind Speed 4 mph (WNW)    
Max Wind Speed 14 mph    
Max Gust Speed -    
Visibility 10 miles    
Events Rain    
Averages and records for this station are not official NWS values.
T = Trace of Precipitation, MM = Missing Value Source: NWS Daily Summary

Daily Weather History Graph

Daily Weather History Graph

Search for Another Location

Airport or City:

Trip Planner

Search our weather history database for the weather conditions in past years. The results will help you decide how hot, cold, wet, or windy it might be!

Date:

Astronomy

Mar. 29, 2013 Rise Set
Actual Time 7:24 AM EDT 8:03 PM EDT
Civil Twilight 6:54 AM EDT 8:33 PM EDT
Nautical Twilight 6:19 AM EDT 9:09 PM EDT
Astronomical Twilight 5:42 AM EDT 9:46 PM EDT
Moon 11:13 PM EDT (3/29) 8:24 AM EDT (3/29)
Length of Visible Light 13h 38m
Length of Day
12h 39m
Waning Gibbous, 93% of the Moon is Illuminated
Mar 29
Waning Gibbous
Apr 3
Last Quarter
Apr 10
New
Apr 18
First Quarter
Apr 25
Full

Hourly Weather History & Observations

Time (EDT) Temp. Windchill Dew Point Humidity Pressure Visibility Wind Dir Wind Speed Gust Speed Precip Events Conditions
12:54 AM 24.1 °F 18.2 °F 19.9 °F 84% 30.29 in 10.0 mi NW 4.6 mph - N/A   Clear
1:54 AM 21.9 °F 17.2 °F 17.1 °F 82% 30.29 in 10.0 mi West 3.5 mph - N/A   Clear
2:54 AM 21.9 °F - 16.0 °F 78% 30.29 in 10.0 mi Calm Calm - N/A   Clear
3:54 AM 21.9 °F - 18.0 °F 85% 30.28 in 10.0 mi Calm Calm - N/A   Clear
4:54 AM 19.9 °F - 16.0 °F 85% 30.28 in 10.0 mi Calm Calm - N/A   Clear
5:54 AM 21.0 °F - 17.1 °F 85% 30.28 in 10.0 mi Calm Calm - N/A   Clear
6:54 AM 17.1 °F 7.6 °F 12.9 °F 84% 30.28 in 10.0 mi NW 6.9 mph - N/A   Clear
7:54 AM 18.0 °F - 12.9 °F 81% 30.30 in 10.0 mi Calm Calm - N/A   Clear
8:54 AM 21.9 °F - 19.0 °F 89% 30.30 in 10.0 mi Calm Calm - N/A   Clear
9:54 AM 32.0 °F 25.6 °F 21.9 °F 66% 30.30 in 10.0 mi West 6.9 mph - N/A   Clear
10:54 AM 37.0 °F 32.4 °F 23.0 °F 57% 30.30 in 10.0 mi NW 5.8 mph - N/A   Clear
11:54 AM 39.0 °F 32.3 °F 21.9 °F 50% 30.29 in 10.0 mi WNW 10.4 mph - N/A   Clear
12:54 PM 39.9 °F 32.1 °F 21.0 °F 47% 30.28 in 10.0 mi NNW 13.8 mph - 0.00 in Rain Light Rain
1:54 PM 39.9 °F 32.1 °F 21.9 °F 49% 30.27 in 10.0 mi NW 13.8 mph - 0.00 in   Clear
2:54 PM 42.1 °F 37.1 °F 21.0 °F 43% 30.26 in 10.0 mi WNW 8.1 mph - N/A   Clear
3:54 PM 43.0 °F 37.7 °F 19.0 °F 38% 30.25 in 10.0 mi WNW 9.2 mph - N/A   Clear
4:54 PM 42.1 °F 36.1 °F 19.9 °F 41% 30.24 in 10.0 mi NW 10.4 mph - N/A   Clear
5:54 PM 43.0 °F 38.8 °F 18.0 °F 37% 30.23 in 10.0 mi West 6.9 mph - N/A   Clear
6:54 PM 42.1 °F 37.1 °F 19.0 °F 40% 30.24 in 10.0 mi WSW 8.1 mph - N/A   Clear
7:54 PM 39.0 °F 34.0 °F 18.0 °F 43% 30.24 in 10.0 mi West 6.9 mph - N/A   Clear
8:54 PM 36.0 °F 31.1 °F 17.1 °F 46% 30.24 in 10.0 mi West 5.8 mph - N/A   Clear
9:54 PM 35.1 °F - 17.1 °F 48% 30.23 in 10.0 mi Calm Calm - N/A   Clear
10:54 PM 28.0 °F - 19.0 °F 69% 30.24 in 10.0 mi Calm Calm - N/A   Clear
11:54 PM 25.0 °F - 18.0 °F 75% 30.24 in 10.0 mi Calm Calm - N/A   Clear